Year,Month,Day,Hour,Minute,Value (Times are PST for temperature in C)
2019,05,30,00,00,11.20
2019,05,30,00,01,11.20
2019,05,30,00,02,11.20
2019,05,30,00,03,11.20
2019,05,30,00,04,11.10
2019,05,30,00,05,11.10
2019,05,30,00,06,11.10
2019,05,30,00,07,11.10
2019,05,30,00,08,11.10
2019,05,30,00,09,11.10
2019,05,30,00,10,11.10
2019,05,30,00,11,11.10
2019,05,30,00,12,11.00
2019,05,30,00,13,11.00
2019,05,30,00,14,11.00
2019,05,30,00,15,11.00
2019,05,30,00,16,11.00
2019,05,30,00,17,11.00
2019,05,30,00,18,11.00
2019,05,30,00,19,11.00
2019,05,30,00,20,11.00
2019,05,30,00,21,11.00
2019,05,30,00,22,11.00
2019,05,30,00,23,11.00
2019,05,30,00,24,10.90
2019,05,30,00,25,10.90
2019,05,30,00,26,10.90
2019,05,30,00,27,10.90
2019,05,30,00,28,10.90
2019,05,30,00,29,10.90
2019,05,30,00,30,10.80
2019,05,30,00,31,10.80
2019,05,30,00,32,10.80
2019,05,30,00,33,10.80
2019,05,30,00,34,10.80
2019,05,30,00,35,10.80
2019,05,30,00,36,10.70
2019,05,30,00,37,10.70
2019,05,30,00,38,10.70
2019,05,30,00,39,10.70
2019,05,30,00,40,10.70
2019,05,30,00,41,10.60
2019,05,30,00,42,10.60
2019,05,30,00,43,10.60
2019,05,30,00,44,10.60
2019,05,30,00,45,10.50
2019,05,30,00,46,10.50
2019,05,30,00,47,10.50
2019,05,30,00,48,10.50
2019,05,30,00,49,10.50
2019,05,30,00,50,10.50
2019,05,30,00,51,10.50
2019,05,30,00,52,10.50
2019,05,30,00,53,10.50
2019,05,30,00,54,10.50
2019,05,30,00,55,10.50
2019,05,30,00,56,10.40
2019,05,30,00,57,10.40
2019,05,30,00,58,10.40
2019,05,30,00,59,10.40
2019,05,30,01,00,10.40
2019,05,30,01,01,10.40
2019,05,30,01,02,10.40
2019,05,30,01,03,10.40
2019,05,30,01,04,10.40
2019,05,30,01,05,10.40
2019,05,30,01,06,10.40
2019,05,30,01,07,10.40
2019,05,30,01,08,10.40
2019,05,30,01,09,10.50
2019,05,30,01,10,10.50
2019,05,30,01,11,10.50
2019,05,30,01,12,10.50
2019,05,30,01,13,10.50
2019,05,30,01,14,10.50
2019,05,30,01,15,10.50
2019,05,30,01,16,10.50
2019,05,30,01,17,10.40
2019,05,30,01,18,10.40
2019,05,30,01,19,10.40
2019,05,30,01,20,10.40
2019,05,30,01,21,10.40
2019,05,30,01,22,10.30
2019,05,30,01,23,10.30
2019,05,30,01,24,10.30
2019,05,30,01,25,10.30
2019,05,30,01,26,10.30
2019,05,30,01,27,10.20
2019,05,30,01,28,10.20
2019,05,30,01,29,10.20
2019,05,30,01,30,10.20
2019,05,30,01,31,10.20
2019,05,30,01,32,10.20
2019,05,30,01,33,10.10
2019,05,30,01,34,10.10
2019,05,30,01,35,10.10
2019,05,30,01,36,10.10
2019,05,30,01,37,10.10
2019,05,30,01,38,10.10
2019,05,30,01,39,10.10
2019,05,30,01,40,10.10
2019,05,30,01,41,10.00
2019,05,30,01,42,10.10
2019,05,30,01,43,10.10
2019,05,30,01,44,10.10
2019,05,30,01,45,10.10
2019,05,30,01,46,10.00
2019,05,30,01,47,10.00
2019,05,30,01,48,10.00
2019,05,30,01,49,10.00
2019,05,30,01,50,10.00
2019,05,30,01,51,9.90
2019,05,30,01,52,10.00
2019,05,30,01,53,10.00
2019,05,30,01,54,9.90
2019,05,30,01,55,9.90
2019,05,30,01,56,9.90
2019,05,30,01,57,9.90
2019,05,30,01,58,9.90
2019,05,30,01,59,9.90
2019,05,30,02,00,9.90
2019,05,30,02,01,9.80
2019,05,30,02,02,9.80
2019,05,30,02,03,9.80
2019,05,30,02,04,9.80
2019,05,30,02,05,9.80
2019,05,30,02,06,9.80
2019,05,30,02,07,9.80
2019,05,30,02,08,9.80
2019,05,30,02,09,9.80
2019,05,30,02,10,9.80
2019,05,30,02,11,9.70
2019,05,30,02,12,9.70
2019,05,30,02,13,9.70
2019,05,30,02,14,9.70
2019,05,30,02,15,9.70
2019,05,30,02,16,9.70
2019,05,30,02,17,9.70
2019,05,30,02,18,9.70
2019,05,30,02,19,9.70
2019,05,30,02,20,9.60
2019,05,30,02,21,9.60
2019,05,30,02,22,9.60
2019,05,30,02,23,9.60
2019,05,30,02,24,9.60
2019,05,30,02,25,9.60
2019,05,30,02,26,9.50
2019,05,30,02,27,9.50
2019,05,30,02,28,9.50
2019,05,30,02,29,9.50
2019,05,30,02,30,9.50
2019,05,30,02,31,9.50
2019,05,30,02,32,9.50
2019,05,30,02,33,9.50
2019,05,30,02,34,9.50
2019,05,30,02,35,9.50
2019,05,30,02,36,9.50
2019,05,30,02,37,9.50
2019,05,30,02,38,9.50
2019,05,30,02,39,9.50
2019,05,30,02,40,9.50
2019,05,30,02,41,9.50
2019,05,30,02,42,9.40
2019,05,30,02,43,9.40
2019,05,30,02,44,9.40
2019,05,30,02,45,9.40
2019,05,30,02,46,9.40
2019,05,30,02,47,9.40
2019,05,30,02,48,9.50
2019,05,30,02,49,9.50
2019,05,30,02,50,9.50
2019,05,30,02,51,9.50
2019,05,30,02,52,9.50
2019,05,30,02,53,9.50
2019,05,30,02,54,9.50
2019,05,30,02,55,9.50
2019,05,30,02,56,9.50
2019,05,30,02,57,9.50
2019,05,30,02,58,9.50
2019,05,30,02,59,9.40
2019,05,30,03,00,9.40
2019,05,30,03,01,9.40
2019,05,30,03,02,9.40
2019,05,30,03,03,9.40
2019,05,30,03,04,9.40
2019,05,30,03,05,9.40
2019,05,30,03,06,9.40
2019,05,30,03,07,9.40
2019,05,30,03,08,9.40
2019,05,30,03,09,9.30
2019,05,30,03,10,9.30
2019,05,30,03,11,9.40
2019,05,30,03,12,9.30
2019,05,30,03,13,9.30
2019,05,30,03,14,9.30
2019,05,30,03,15,9.30
2019,05,30,03,16,9.30
2019,05,30,03,17,9.30
2019,05,30,03,18,9.30
2019,05,30,03,19,9.30
2019,05,30,03,20,9.30
2019,05,30,03,21,9.30
2019,05,30,03,22,9.30
2019,05,30,03,23,9.30
2019,05,30,03,24,9.30
2019,05,30,03,25,9.20
2019,05,30,03,26,9.20
2019,05,30,03,27,9.20
2019,05,30,03,28,9.20
2019,05,30,03,29,9.20
2019,05,30,03,30,9.20
2019,05,30,03,31,9.20
2019,05,30,03,32,9.20
2019,05,30,03,33,9.20
2019,05,30,03,34,9.10
2019,05,30,03,35,9.20
2019,05,30,03,36,9.20
2019,05,30,03,37,9.20
2019,05,30,03,38,9.20
2019,05,30,03,39,9.20
2019,05,30,03,40,9.20
2019,05,30,03,41,9.20
2019,05,30,03,42,9.20
2019,05,30,03,43,9.20
2019,05,30,03,44,9.20
2019,05,30,03,45,9.20
2019,05,30,03,46,9.20
2019,05,30,03,47,9.20
2019,05,30,03,48,9.20
2019,05,30,03,49,9.20
2019,05,30,03,50,9.20
2019,05,30,03,51,9.20
2019,05,30,03,52,9.20
2019,05,30,03,53,9.20
2019,05,30,03,54,9.20
2019,05,30,03,55,9.10
2019,05,30,03,56,9.10
2019,05,30,03,57,9.10
2019,05,30,03,58,9.10
2019,05,30,03,59,9.10
2019,05,30,04,00,9.10
2019,05,30,04,01,9.10
2019,05,30,04,02,9.10
2019,05,30,04,03,9.10
2019,05,30,04,04,9.10
2019,05,30,04,05,9.10
2019,05,30,04,06,9.10
2019,05,30,04,07,9.00
2019,05,30,04,08,9.00
2019,05,30,04,09,9.00
2019,05,30,04,10,9.00
2019,05,30,04,11,9.00
2019,05,30,04,12,9.00
2019,05,30,04,13,9.00
2019,05,30,04,14,8.90
2019,05,30,04,15,8.90
2019,05,30,04,16,8.90
2019,05,30,04,17,8.90
2019,05,30,04,18,8.90
2019,05,30,04,19,8.90
2019,05,30,04,20,8.80
2019,05,30,04,21,8.90
2019,05,30,04,22,8.90
2019,05,30,04,23,8.90
2019,05,30,04,24,8.90
2019,05,30,04,25,8.90
2019,05,30,04,26,8.90
2019,05,30,04,27,8.90
2019,05,30,04,28,8.90
2019,05,30,04,29,8.90
2019,05,30,04,30,8.80
2019,05,30,04,31,8.80
2019,05,30,04,32,8.80
2019,05,30,04,33,8.80
2019,05,30,04,34,8.80
2019,05,30,04,35,8.80
2019,05,30,04,36,8.90
2019,05,30,04,37,8.90
2019,05,30,04,38,8.90
2019,05,30,04,39,8.90
2019,05,30,04,40,8.90
2019,05,30,04,41,8.90
2019,05,30,04,42,8.90
2019,05,30,04,43,8.90
2019,05,30,04,44,8.90
2019,05,30,04,45,8.90
2019,05,30,04,46,8.90
2019,05,30,04,47,8.90
2019,05,30,04,48,8.80
2019,05,30,04,49,8.80
2019,05,30,04,50,8.80
2019,05,30,04,51,8.80
2019,05,30,04,52,8.80
2019,05,30,04,53,8.80
2019,05,30,04,54,8.80
2019,05,30,04,55,8.80
2019,05,30,04,56,8.80
2019,05,30,04,57,8.80
2019,05,30,04,58,8.80
2019,05,30,04,59,8.80
2019,05,30,05,00,8.80
2019,05,30,05,01,8.80
2019,05,30,05,02,8.80
2019,05,30,05,03,8.80
2019,05,30,05,04,8.70
2019,05,30,05,05,8.70
2019,05,30,05,06,8.70
2019,05,30,05,07,8.80
2019,05,30,05,08,8.80
2019,05,30,05,09,8.80
2019,05,30,05,10,8.80
2019,05,30,05,11,8.80
2019,05,30,05,12,8.80
2019,05,30,05,13,8.80
2019,05,30,05,14,8.80
2019,05,30,05,15,8.80
2019,05,30,05,16,8.80
2019,05,30,05,17,8.80
2019,05,30,05,18,8.70
2019,05,30,05,19,8.70
2019,05,30,05,20,8.70
2019,05,30,05,21,8.70
2019,05,30,05,22,8.70
2019,05,30,05,23,8.70
2019,05,30,05,24,8.70
2019,05,30,05,25,8.70
2019,05,30,05,26,8.70
2019,05,30,05,27,8.70
2019,05,30,05,28,8.70
2019,05,30,05,29,8.70
2019,05,30,05,30,8.70
2019,05,30,05,31,8.70
2019,05,30,05,32,8.70
2019,05,30,05,33,8.80
2019,05,30,05,34,8.80
2019,05,30,05,35,8.70
2019,05,30,05,36,8.70
2019,05,30,05,37,8.70
2019,05,30,05,38,8.70
2019,05,30,05,39,8.70
2019,05,30,05,40,8.70
2019,05,30,05,41,8.70
2019,05,30,05,42,8.70
2019,05,30,05,43,8.70
2019,05,30,05,44,8.80
2019,05,30,05,45,8.80
2019,05,30,05,46,8.80
2019,05,30,05,47,8.80
2019,05,30,05,48,8.80
2019,05,30,05,49,8.80
2019,05,30,05,50,8.80
2019,05,30,05,51,8.80
2019,05,30,05,52,8.80
2019,05,30,05,53,8.80
2019,05,30,05,54,8.80
2019,05,30,05,55,8.80
2019,05,30,05,56,8.80
2019,05,30,05,57,8.80
2019,05,30,05,58,8.80
2019,05,30,05,59,8.80
2019,05,30,06,00,8.80
2019,05,30,06,01,8.80
2019,05,30,06,02,8.80
2019,05,30,06,03,8.80
2019,05,30,06,04,8.80
2019,05,30,06,05,8.80
2019,05,30,06,06,8.80
2019,05,30,06,07,8.90
2019,05,30,06,08,8.90
2019,05,30,06,09,8.90
2019,05,30,06,10,8.90
2019,05,30,06,11,8.90
2019,05,30,06,12,9.00
2019,05,30,06,13,9.10
2019,05,30,06,14,9.20
2019,05,30,06,15,9.20
2019,05,30,06,16,9.30
2019,05,30,06,17,9.30
2019,05,30,06,18,9.40
2019,05,30,06,19,9.40
2019,05,30,06,20,9.50
2019,05,30,06,21,9.60
2019,05,30,06,22,9.60
2019,05,30,06,23,9.60
2019,05,30,06,24,9.60
2019,05,30,06,25,9.60
2019,05,30,06,26,9.60
2019,05,30,06,27,9.70
2019,05,30,06,28,9.70
2019,05,30,06,29,9.70
2019,05,30,06,30,9.70
2019,05,30,06,31,9.70
2019,05,30,06,32,9.70
2019,05,30,06,33,9.70
2019,05,30,06,34,9.70
2019,05,30,06,35,9.70
2019,05,30,06,36,9.70
2019,05,30,06,37,9.80
2019,05,30,06,38,9.80
2019,05,30,06,39,9.80
2019,05,30,06,40,9.80
2019,05,30,06,41,9.80
2019,05,30,06,42,9.80
2019,05,30,06,43,9.80
2019,05,30,06,44,9.80
2019,05,30,06,45,9.90
2019,05,30,06,46,9.90
2019,05,30,06,47,9.90
2019,05,30,06,48,9.90
2019,05,30,06,49,10.00
2019,05,30,06,50,10.00
2019,05,30,06,51,10.00
2019,05,30,06,52,10.10
2019,05,30,06,53,10.10
2019,05,30,06,54,10.10
2019,05,30,06,55,10.20
2019,05,30,06,56,10.20
2019,05,30,06,57,10.20
2019,05,30,06,58,10.30
2019,05,30,06,59,10.30
2019,05,30,07,00,10.40
2019,05,30,07,01,10.40
2019,05,30,07,02,10.40
2019,05,30,07,03,10.50
2019,05,30,07,04,10.50
2019,05,30,07,05,10.60
2019,05,30,07,06,10.60
2019,05,30,07,07,10.60
2019,05,30,07,08,10.60
2019,05,30,07,09,10.70
2019,05,30,07,10,10.70
2019,05,30,07,11,10.70
2019,05,30,07,12,10.80
2019,05,30,07,13,10.80
2019,05,30,07,14,10.90
2019,05,30,07,15,10.90
2019,05,30,07,16,10.90
2019,05,30,07,17,11.00
2019,05,30,07,18,11.00
2019,05,30,07,19,11.00
2019,05,30,07,20,11.00
2019,05,30,07,21,11.00
2019,05,30,07,22,11.10
2019,05,30,07,23,11.10
2019,05,30,07,24,11.10
2019,05,30,07,25,11.10
2019,05,30,07,26,11.20
2019,05,30,07,27,11.20
2019,05,30,07,28,11.20
2019,05,30,07,29,11.20
2019,05,30,07,30,11.20
2019,05,30,07,31,11.30
2019,05,30,07,32,11.30
2019,05,30,07,33,11.40
2019,05,30,07,34,11.40
2019,05,30,07,35,11.40
2019,05,30,07,36,11.50
2019,05,30,07,37,11.50
2019,05,30,07,38,11.50
2019,05,30,07,39,11.60
2019,05,30,07,40,11.60
2019,05,30,07,41,11.60
2019,05,30,07,42,11.60
2019,05,30,07,43,11.60
2019,05,30,07,44,11.60
2019,05,30,07,45,11.60
2019,05,30,07,46,11.60
2019,05,30,07,47,11.60
2019,05,30,07,48,11.60
2019,05,30,07,49,11.60
2019,05,30,07,50,11.50
2019,05,30,07,51,11.60
2019,05,30,07,52,11.60
2019,05,30,07,53,11.60
2019,05,30,07,54,11.60
2019,05,30,07,55,11.60
2019,05,30,07,56,11.60
2019,05,30,07,57,11.60
2019,05,30,07,58,11.60
2019,05,30,07,59,11.60
2019,05,30,08,00,11.70
2019,05,30,08,01,11.70
2019,05,30,08,02,11.80
2019,05,30,08,03,11.80
2019,05,30,08,04,11.90
2019,05,30,08,05,11.90
2019,05,30,08,06,12.00
2019,05,30,08,07,12.00
2019,05,30,08,08,12.10
2019,05,30,08,09,12.10
2019,05,30,08,10,12.20
2019,05,30,08,11,12.30
2019,05,30,08,12,12.30
2019,05,30,08,13,12.30
2019,05,30,08,14,12.30
2019,05,30,08,15,12.30
2019,05,30,08,16,12.20
2019,05,30,08,17,12.20
2019,05,30,08,18,12.30
2019,05,30,08,19,12.30
2019,05,30,08,20,12.30
2019,05,30,08,21,12.30
2019,05,30,08,22,12.30
2019,05,30,08,23,12.30
2019,05,30,08,24,12.40
2019,05,30,08,25,12.40
2019,05,30,08,26,12.50
2019,05,30,08,27,12.60
2019,05,30,08,28,12.60
2019,05,30,08,29,12.70
2019,05,30,08,30,12.80
2019,05,30,08,31,12.80
2019,05,30,08,32,12.80
2019,05,30,08,33,12.90
2019,05,30,08,34,12.90
2019,05,30,08,35,12.90
2019,05,30,08,36,12.90
2019,05,30,08,37,12.90
2019,05,30,08,38,12.90
2019,05,30,08,39,13.00
2019,05,30,08,40,13.10
2019,05,30,08,41,13.10
2019,05,30,08,42,13.10
2019,05,30,08,43,13.20
2019,05,30,08,44,13.20
2019,05,30,08,45,13.20
2019,05,30,08,46,13.20
2019,05,30,08,47,13.20
2019,05,30,08,48,13.20
2019,05,30,08,49,13.20
2019,05,30,08,50,13.20
2019,05,30,08,51,13.20
2019,05,30,08,52,13.20
2019,05,30,08,53,13.20
2019,05,30,08,54,13.20
2019,05,30,08,55,13.20
2019,05,30,08,56,13.20
2019,05,30,08,57,13.20
2019,05,30,08,58,13.20
2019,05,30,08,59,13.20
2019,05,30,09,00,13.10
2019,05,30,09,01,13.10
2019,05,30,09,02,13.20
2019,05,30,09,03,13.20
2019,05,30,09,04,13.20
2019,05,30,09,05,13.30
2019,05,30,09,06,13.30
2019,05,30,09,07,13.30
2019,05,30,09,08,13.30
2019,05,30,09,09,13.20
2019,05,30,09,10,13.30
2019,05,30,09,11,13.30
2019,05,30,09,12,13.30
2019,05,30,09,13,13.30
2019,05,30,09,14,13.30
2019,05,30,09,15,13.40
2019,05,30,09,16,13.50
2019,05,30,09,17,13.50
2019,05,30,09,18,13.50
2019,05,30,09,19,13.40
2019,05,30,09,20,13.30
2019,05,30,09,21,13.30
2019,05,30,09,22,13.30
2019,05,30,09,23,13.30
2019,05,30,09,24,13.30
2019,05,30,09,25,13.30
2019,05,30,09,26,13.30
2019,05,30,09,27,13.30
2019,05,30,09,28,13.30
2019,05,30,09,29,13.40
2019,05,30,09,30,13.40
2019,05,30,09,31,13.50
2019,05,30,09,32,13.60
2019,05,30,09,33,13.70
2019,05,30,09,34,13.70
2019,05,30,09,35,13.70
2019,05,30,09,36,13.70
2019,05,30,09,37,13.70
2019,05,30,09,38,13.70
2019,05,30,09,39,13.70
2019,05,30,09,40,13.70
2019,05,30,09,41,13.80
2019,05,30,09,42,13.80
2019,05,30,09,43,13.80
2019,05,30,09,44,13.80
2019,05,30,09,45,13.80
2019,05,30,09,46,13.80
2019,05,30,09,47,13.90
2019,05,30,09,48,14.00
2019,05,30,09,49,14.00
2019,05,30,09,50,14.10
2019,05,30,09,51,14.10
2019,05,30,09,52,14.20
2019,05,30,09,53,14.20
2019,05,30,09,54,14.10
2019,05,30,09,55,14.10
2019,05,30,09,56,14.10
2019,05,30,09,57,14.10
2019,05,30,09,58,14.20
2019,05,30,09,59,14.20
2019,05,30,10,00,14.20
2019,05,30,10,01,14.20
2019,05,30,10,02,14.20
2019,05,30,10,03,14.20
2019,05,30,10,04,14.30
2019,05,30,10,05,14.40
2019,05,30,10,06,14.50
2019,05,30,10,07,14.60
2019,05,30,10,08,14.70
2019,05,30,10,09,14.70
2019,05,30,10,10,14.70
2019,05,30,10,11,14.70
2019,05,30,10,12,14.80
2019,05,30,10,13,14.80
2019,05,30,10,14,14.80
2019,05,30,10,15,14.70
2019,05,30,10,16,14.70
2019,05,30,10,17,14.80
2019,05,30,10,18,14.70
2019,05,30,10,19,14.70
2019,05,30,10,20,14.70
2019,05,30,10,21,14.70
2019,05,30,10,22,14.80
2019,05,30,10,23,14.80
2019,05,30,10,24,14.80
2019,05,30,10,25,14.80
2019,05,30,10,26,14.80
2019,05,30,10,27,14.80
2019,05,30,10,28,14.70
2019,05,30,10,29,14.80
2019,05,30,10,30,14.80
2019,05,30,10,31,14.80
2019,05,30,10,32,14.90
2019,05,30,10,33,15.00
2019,05,30,10,34,15.00
2019,05,30,10,35,15.10
2019,05,30,10,36,15.10
2019,05,30,10,37,15.20
2019,05,30,10,38,15.30
2019,05,30,10,39,15.40
2019,05,30,10,40,15.50
2019,05,30,10,41,15.50
2019,05,30,10,42,15.60
2019,05,30,10,43,15.70
2019,05,30,10,44,15.70
2019,05,30,10,45,15.70
2019,05,30,10,46,15.70
2019,05,30,10,47,15.70
2019,05,30,10,48,15.70
2019,05,30,10,49,15.70
2019,05,30,10,50,15.80
2019,05,30,10,51,15.80
2019,05,30,10,52,15.80
2019,05,30,10,53,15.80
2019,05,30,10,54,15.80
2019,05,30,10,55,15.80
2019,05,30,10,56,15.90
2019,05,30,10,57,15.90
2019,05,30,10,58,16.00
2019,05,30,10,59,16.00
2019,05,30,11,00,16.00
2019,05,30,11,01,15.90
2019,05,30,11,02,15.90
2019,05,30,11,03,16.00
2019,05,30,11,04,16.00
2019,05,30,11,05,16.10
2019,05,30,11,06,16.10
2019,05,30,11,07,16.10
2019,05,30,11,08,16.00
2019,05,30,11,09,16.00
2019,05,30,11,10,15.90
2019,05,30,11,11,15.80
2019,05,30,11,12,15.80
2019,05,30,11,13,15.80
2019,05,30,11,14,15.80
2019,05,30,11,15,15.80
2019,05,30,11,16,15.70
2019,05,30,11,17,15.70
2019,05,30,11,18,15.60
2019,05,30,11,19,15.40
2019,05,30,11,20,15.30
2019,05,30,11,21,15.10
2019,05,30,11,22,15.10
2019,05,30,11,23,15.10
2019,05,30,11,24,15.10
2019,05,30,11,25,15.10
2019,05,30,11,26,15.10
2019,05,30,11,27,15.10
2019,05,30,11,28,15.20
2019,05,30,11,29,15.30
2019,05,30,11,30,15.40
2019,05,30,11,31,15.40
2019,05,30,11,32,15.40
2019,05,30,11,33,15.30
2019,05,30,11,34,15.40
2019,05,30,11,35,15.30
2019,05,30,11,36,15.30
2019,05,30,11,37,15.30
2019,05,30,11,38,15.20
2019,05,30,11,39,15.20
2019,05,30,11,40,15.20
2019,05,30,11,41,15.20
2019,05,30,11,42,15.10
2019,05,30,11,43,15.10
2019,05,30,11,44,15.20
2019,05,30,11,45,15.30
2019,05,30,11,46,15.30
2019,05,30,11,47,15.40
2019,05,30,11,48,15.50
2019,05,30,11,49,15.60
2019,05,30,11,50,15.70
2019,05,30,11,51,15.80
2019,05,30,11,52,15.90
2019,05,30,11,53,16.00
2019,05,30,11,54,16.10
2019,05,30,11,55,16.10
2019,05,30,11,56,16.20
2019,05,30,11,57,16.30
2019,05,30,11,58,16.40
2019,05,30,11,59,16.40
2019,05,30,12,00,16.40
2019,05,30,12,01,16.40
2019,05,30,12,02,16.40
2019,05,30,12,03,16.30
2019,05,30,12,04,16.30
2019,05,30,12,05,16.30
2019,05,30,12,06,16.20
2019,05,30,12,07,16.30
2019,05,30,12,08,16.20
2019,05,30,12,09,16.10
2019,05,30,12,10,16.00
2019,05,30,12,11,15.90
2019,05,30,12,12,15.80
2019,05,30,12,13,15.80
2019,05,30,12,14,15.80
2019,05,30,12,15,15.80
2019,05,30,12,16,15.80
2019,05,30,12,17,15.90
2019,05,30,12,18,16.10
2019,05,30,12,19,16.10
2019,05,30,12,20,16.20
2019,05,30,12,21,16.20
2019,05,30,12,22,16.10
2019,05,30,12,23,16.10
2019,05,30,12,24,16.10
2019,05,30,12,25,16.20
2019,05,30,12,26,16.20
2019,05,30,12,27,16.30
2019,05,30,12,28,16.40
2019,05,30,12,29,16.40
2019,05,30,12,30,16.40
2019,05,30,12,31,16.50
2019,05,30,12,32,16.60
2019,05,30,12,33,16.60
2019,05,30,12,34,16.50
2019,05,30,12,35,16.40
2019,05,30,12,36,16.30
2019,05,30,12,37,16.30
2019,05,30,12,38,16.30
2019,05,30,12,39,16.30
2019,05,30,12,40,16.30
2019,05,30,12,41,16.30
2019,05,30,12,42,16.30
2019,05,30,12,43,16.40
2019,05,30,12,44,16.40
2019,05,30,12,45,16.40
2019,05,30,12,46,16.40
2019,05,30,12,47,16.40
2019,05,30,12,48,16.40
2019,05,30,12,49,16.50
2019,05,30,12,50,16.60
2019,05,30,12,51,16.60
2019,05,30,12,52,16.70
2019,05,30,12,53,16.70
2019,05,30,12,54,16.70
2019,05,30,12,55,16.70
2019,05,30,12,56,16.80
2019,05,30,12,57,16.80
2019,05,30,12,58,16.80
2019,05,30,12,59,16.80
2019,05,30,13,00,16.80
2019,05,30,13,01,16.80
2019,05,30,13,02,16.80
2019,05,30,13,03,16.80
2019,05,30,13,04,16.80
2019,05,30,13,05,16.90
2019,05,30,13,06,17.00
2019,05,30,13,07,17.10
2019,05,30,13,08,17.20
2019,05,30,13,09,17.30
2019,05,30,13,10,17.40
2019,05,30,13,11,17.40
2019,05,30,13,12,17.40
2019,05,30,13,13,17.50
2019,05,30,13,14,17.50
2019,05,30,13,15,17.40
2019,05,30,13,16,17.40
2019,05,30,13,17,17.50
2019,05,30,13,18,17.50
2019,05,30,13,19,17.50
2019,05,30,13,20,17.40
2019,05,30,13,21,17.40
2019,05,30,13,22,17.30
2019,05,30,13,23,17.30
2019,05,30,13,24,17.40
2019,05,30,13,25,17.40
2019,05,30,13,26,17.40
2019,05,30,13,27,17.50
2019,05,30,13,28,17.60
2019,05,30,13,29,17.70
2019,05,30,13,30,17.80
2019,05,30,13,31,17.90
2019,05,30,13,32,18.10
2019,05,30,13,33,18.10
2019,05,30,13,34,18.20
2019,05,30,13,35,18.20
2019,05,30,13,36,18.20
2019,05,30,13,37,18.20
2019,05,30,13,38,18.20
2019,05,30,13,39,18.20
2019,05,30,13,40,18.20
2019,05,30,13,41,18.20
2019,05,30,13,42,18.20
2019,05,30,13,43,18.30
2019,05,30,13,44,18.30
2019,05,30,13,45,18.30
2019,05,30,13,46,18.30
2019,05,30,13,47,18.30
2019,05,30,13,48,18.20
2019,05,30,13,49,18.20
2019,05,30,13,50,18.20
2019,05,30,13,51,18.20
2019,05,30,13,52,18.20
2019,05,30,13,53,18.20
2019,05,30,13,54,18.20
2019,05,30,13,55,18.20
2019,05,30,13,56,18.20
2019,05,30,13,57,18.20
2019,05,30,13,58,18.20
2019,05,30,13,59,18.10
2019,05,30,14,00,18.10
2019,05,30,14,01,18.00
2019,05,30,14,02,18.00
2019,05,30,14,03,17.90
2019,05,30,14,04,17.90
2019,05,30,14,05,17.80
2019,05,30,14,06,17.80
2019,05,30,14,07,17.70
2019,05,30,14,08,17.60
2019,05,30,14,09,17.60
2019,05,30,14,10,17.50
2019,05,30,14,11,17.50
2019,05,30,14,12,17.50
2019,05,30,14,13,17.60
2019,05,30,14,14,17.60
2019,05,30,14,15,17.70
2019,05,30,14,16,17.70
2019,05,30,14,17,17.70
2019,05,30,14,18,17.70
2019,05,30,14,19,17.60
2019,05,30,14,20,17.60
2019,05,30,14,21,17.60
2019,05,30,14,22,17.70
2019,05,30,14,23,17.70
2019,05,30,14,24,17.80
2019,05,30,14,25,17.90
2019,05,30,14,26,18.00
2019,05,30,14,27,18.10
2019,05,30,14,28,18.20
2019,05,30,14,29,18.40
2019,05,30,14,30,18.50
2019,05,30,14,31,18.60
2019,05,30,14,32,18.80
2019,05,30,14,33,18.90
2019,05,30,14,34,18.90
2019,05,30,14,35,19.00
2019,05,30,14,36,19.00
2019,05,30,14,37,19.10
2019,05,30,14,38,19.10
2019,05,30,14,39,19.10
2019,05,30,14,40,19.20
2019,05,30,14,41,19.20
2019,05,30,14,42,19.30
2019,05,30,14,43,19.40
2019,05,30,14,44,19.40
2019,05,30,14,45,19.50
2019,05,30,14,46,19.60
2019,05,30,14,47,19.60
2019,05,30,14,48,19.60
2019,05,30,14,49,19.60
2019,05,30,14,50,19.60
2019,05,30,14,51,19.60
2019,05,30,14,52,19.60
2019,05,30,14,53,19.70
2019,05,30,14,54,19.80
2019,05,30,14,55,19.80
2019,05,30,14,56,19.80
2019,05,30,14,57,19.80
2019,05,30,14,58,19.80
2019,05,30,14,59,19.70
2019,05,30,15,00,19.70
2019,05,30,15,01,19.80
2019,05,30,15,02,19.80
2019,05,30,15,03,19.80
2019,05,30,15,04,19.90
2019,05,30,15,05,19.90
2019,05,30,15,06,20.00
2019,05,30,15,07,20.10
2019,05,30,15,08,20.10
2019,05,30,15,09,20.10
2019,05,30,15,10,20.10
2019,05,30,15,11,20.10
2019,05,30,15,12,20.00
2019,05,30,15,13,20.00
2019,05,30,15,14,20.00
2019,05,30,15,15,20.00
2019,05,30,15,16,19.90
2019,05,30,15,17,19.80
2019,05,30,15,18,19.80
2019,05,30,15,19,19.80
2019,05,30,15,20,19.80
2019,05,30,15,21,19.80
2019,05,30,15,22,19.80
2019,05,30,15,23,19.80
2019,05,30,15,24,19.80
2019,05,30,15,25,19.80
2019,05,30,15,26,19.80
2019,05,30,15,27,19.90
2019,05,30,15,28,20.00
2019,05,30,15,29,20.10
2019,05,30,15,30,20.10
2019,05,30,15,31,20.20
2019,05,30,15,32,20.20
2019,05,30,15,33,20.30
2019,05,30,15,34,20.40
2019,05,30,15,35,20.40
2019,05,30,15,36,20.40
2019,05,30,15,37,20.40
2019,05,30,15,38,20.50
2019,05,30,15,39,20.50
2019,05,30,15,40,20.60
2019,05,30,15,41,20.70
2019,05,30,15,42,20.80
2019,05,30,15,43,20.90
2019,05,30,15,44,20.90
2019,05,30,15,45,21.00
2019,05,30,15,46,21.10
2019,05,30,15,47,21.10
2019,05,30,15,48,21.20
2019,05,30,15,49,21.20
2019,05,30,15,50,21.20
2019,05,30,15,51,21.30
2019,05,30,15,52,21.40
2019,05,30,15,53,21.40
2019,05,30,15,54,21.50
2019,05,30,15,55,21.50
2019,05,30,15,56,21.50
2019,05,30,15,57,21.50
2019,05,30,15,58,21.50
2019,05,30,15,59,21.50
2019,05,30,16,00,21.50
2019,05,30,16,01,21.60
2019,05,30,16,02,21.60
2019,05,30,16,03,21.80
2019,05,30,16,04,21.90
2019,05,30,16,05,22.00
2019,05,30,16,06,22.10
2019,05,30,16,07,22.20
2019,05,30,16,08,22.30
2019,05,30,16,09,22.40
2019,05,30,16,10,22.40
2019,05,30,16,11,22.40
2019,05,30,16,12,22.50
2019,05,30,16,13,22.50
2019,05,30,16,14,22.50
2019,05,30,16,15,22.60
2019,05,30,16,16,22.60
2019,05,30,16,17,22.70
2019,05,30,16,18,22.80
2019,05,30,16,19,22.90
2019,05,30,16,20,23.00
2019,05,30,16,21,23.10
2019,05,30,16,22,23.10
2019,05,30,16,23,23.30
2019,05,30,16,24,23.30
2019,05,30,16,25,23.50
2019,05,30,16,26,23.60
2019,05,30,16,27,23.60
2019,05,30,16,28,23.70
2019,05,30,16,29,23.70
2019,05,30,16,30,23.70
2019,05,30,16,31,23.80
2019,05,30,16,32,23.80
2019,05,30,16,33,23.80
2019,05,30,16,34,23.80
2019,05,30,16,35,23.80
2019,05,30,16,36,23.80
2019,05,30,16,37,23.70
2019,05,30,16,38,23.70
2019,05,30,16,39,23.70
2019,05,30,16,40,23.70
2019,05,30,16,41,23.70
2019,05,30,16,42,23.70
2019,05,30,16,43,23.70
2019,05,30,16,44,23.80
2019,05,30,16,45,23.80
2019,05,30,16,46,23.80
2019,05,30,16,47,23.90
2019,05,30,16,48,23.90
2019,05,30,16,49,23.90
2019,05,30,16,50,23.80
2019,05,30,16,51,23.70
2019,05,30,16,52,23.70
2019,05,30,16,53,23.70
2019,05,30,16,54,23.70
2019,05,30,16,55,23.80
2019,05,30,16,56,23.80
2019,05,30,16,57,23.90
2019,05,30,16,58,23.90
2019,05,30,16,59,23.90
2019,05,30,17,00,24.00
2019,05,30,17,01,24.10
2019,05,30,17,02,24.20
2019,05,30,17,03,24.30
2019,05,30,17,04,24.30
2019,05,30,17,05,24.30
2019,05,30,17,06,24.40
2019,05,30,17,07,24.40
2019,05,30,17,08,24.40
2019,05,30,17,09,24.40
2019,05,30,17,10,24.40
2019,05,30,17,11,24.40
2019,05,30,17,12,24.40
2019,05,30,17,13,24.40
2019,05,30,17,14,24.50
2019,05,30,17,15,24.50
2019,05,30,17,16,24.50
2019,05,30,17,17,24.60
2019,05,30,17,18,24.60
2019,05,30,17,19,24.70
2019,05,30,17,20,24.80
2019,05,30,17,21,25.00
2019,05,30,17,22,25.10
2019,05,30,17,23,25.20
2019,05,30,17,24,25.40
2019,05,30,17,25,25.50
2019,05,30,17,26,25.60
2019,05,30,17,27,25.70
2019,05,30,17,28,25.80
2019,05,30,17,29,25.80
2019,05,30,17,30,25.90
2019,05,30,17,31,25.90
2019,05,30,17,32,25.90